Location: Olsztyn
(53.7767°N, 20.4765°E)
Time: 04:46:31
(UTC+01:00)

Transit 2A - All Passes

Search period start: 23 January 2022 00:00
Search period end: 02 February 2022 00:00
Orbit: 591 x 967 km, 66.7° (Epoch: 22 January)

Date Brightness Start Highest point End Pass type
(mag) Time Alt. Az. Time Alt. Az. Time Alt. Az.
23 Jan - 10:07:47 10° SE 10:11:16 16° ESE 10:14:48 10° ENE daylight
23 Jan - 11:47:14 10° SSW 11:53:23 62° ESE 11:59:43 10° NE daylight
23 Jan - 13:30:54 10° WSW 13:36:59 46° NW 13:43:08 10° NE daylight
23 Jan - 15:16:26 10° WNW 15:21:45 26° N 15:26:59 10° NE daylight
23 Jan - 17:01:29 10° NW 17:06:56 28° NNE 17:12:07 10° ENE visible
23 Jan - 18:45:14 10° NW 18:51:28 57° NE 18:57:13 10° ESE visible
23 Jan - 20:28:51 10° NW 20:34:39 43° WSW 20:40:00 10° S visible
24 Jan - 09:35:48 10° ESE 09:37:24 11° E 09:39:02 10° E daylight
24 Jan - 11:13:16 10° S 11:19:14 49° ESE 11:25:22 10° NE daylight
24 Jan - 12:56:21 10° WSW 13:02:34 55° NW 13:08:51 10° NE daylight
24 Jan - 14:41:43 10° WNW 14:47:09 28° NNW 14:52:31 10° NE daylight
24 Jan - 16:27:01 10° NW 16:32:19 26° N 16:37:26 10° ENE daylight
24 Jan - 18:10:57 10° NW 18:17:03 47° NE 18:22:44 10° ESE visible
24 Jan - 19:54:28 10° NW 20:00:32 56° WSW 20:06:06 10° SSE visible
24 Jan - 21:40:04 10° WNW 21:42:25 12° W 21:44:42 10° WSW visible
25 Jan - 10:39:28 10° S 10:45:09 38° ESE 10:50:57 10° NE daylight
25 Jan - 12:21:54 10° SW 12:28:11 67° NW 12:34:35 10° NE daylight
25 Jan - 14:06:59 10° W 14:12:34 31° NNW 14:18:06 10° NE daylight
25 Jan - 15:52:29 10° NW 15:57:42 25° N 16:02:45 10° ENE daylight
25 Jan - 17:36:39 10° NW 17:42:36 40° NNE 17:48:09 10° E visible
25 Jan - 19:20:08 10° NW 19:26:22 73° SW 19:32:03 10° SSE visible
25 Jan - 21:04:46 10° WNW 21:08:33 17° WSW 21:12:09 10° SW visible
26 Jan - 10:05:52 10° SSE 10:11:06 29° ESE 10:16:28 10° NE daylight
26 Jan - 11:47:32 10° SW 11:53:52 82° NW 12:00:19 10° NE daylight
26 Jan - 13:32:15 10° W 13:38:01 34° NNW 13:43:44 10° NE daylight
26 Jan - 15:17:53 10° NW 15:23:04 25° N 15:28:07 10° NE daylight
26 Jan - 17:02:19 10° NW 17:08:05 35° NNE 17:13:32 10° E visible
26 Jan - 18:45:50 10° NW 18:52:08 89° NE 18:57:53 10° SE visible
26 Jan - 20:29:58 10° WNW 20:34:38 23° WSW 20:38:59 10° SSW visible
27 Jan - 09:32:29 10° SSE 09:37:07 22° ESE 09:41:50 10° ENE daylight
27 Jan - 11:13:18 10° SW 11:19:36 82° SE 11:26:02 10° NE daylight
27 Jan - 12:57:34 10° W 13:03:31 39° NNW 13:09:25 10° NE daylight
27 Jan - 14:43:13 10° WNW 14:48:26 25° N 14:53:31 10° NE daylight
27 Jan - 16:27:57 10° NW 16:33:33 31° NNE 16:38:51 10° E daylight
27 Jan - 18:11:33 10° NW 18:17:50 73° NE 18:23:35 10° SE visible
27 Jan - 19:55:23 10° NW 20:00:39 31° WSW 20:05:31 10° S visible
28 Jan - 08:59:28 10° SE 09:03:11 17° ESE 09:06:58 10° ENE daylight
28 Jan - 10:39:10 10° SSW 10:45:23 65° ESE 10:51:43 10° NE daylight
28 Jan - 12:22:57 10° WSW 12:29:02 45° NW 12:35:08 10° NE daylight
28 Jan - 14:08:31 10° WNW 14:13:49 26° N 14:19:00 10° NE daylight
28 Jan - 15:53:32 10° NW 15:58:58 28° NNE 16:04:08 10° ENE daylight
28 Jan - 17:37:15 10° NW 17:43:29 59° NE 17:49:11 10° ESE visible
28 Jan - 19:20:55 10° NW 19:26:36 41° WSW 19:31:50 10° S visible
29 Jan - 08:27:09 10° ESE 08:29:18 12° E 08:31:30 10° E daylight
29 Jan - 10:05:11 10° SSW 10:11:13 51° ESE 10:17:22 10° NE daylight
29 Jan - 11:48:23 10° WSW 11:54:36 53° NW 12:00:51 10° NE daylight
29 Jan - 13:33:48 10° WNW 13:39:13 28° NNW 13:44:32 10° NE daylight
29 Jan - 15:19:04 10° NW 15:24:23 27° N 15:29:26 10° ENE daylight
29 Jan - 17:02:59 10° NW 17:09:04 49° NE 17:14:43 10° ESE visible
29 Jan - 18:46:31 10° NW 18:52:31 53° WSW 18:57:57 10° SSE visible
29 Jan - 20:32:30 10° W 20:34:19 11° W 20:36:05 10° WSW visible
30 Jan - 09:31:21 10° S 09:37:07 39° ESE 09:42:59 10° NE daylight
30 Jan - 11:13:54 10° SW 11:20:13 65° NW 11:26:34 10° NE daylight
30 Jan - 12:59:03 10° W 13:04:38 30° NNW 13:10:07 10° NE daylight
30 Jan - 14:44:33 10° NW 14:49:46 25° N 14:54:46 10° ENE daylight
30 Jan - 16:28:41 10° NW 16:34:37 41° NNE 16:40:09 10° ESE daylight
30 Jan - 18:12:11 10° NW 18:18:20 69° SW 18:23:56 10° SSE visible
30 Jan - 19:56:58 10° WNW 20:00:27 16° WSW 20:03:47 10° SW visible
31 Jan - 08:57:42 10° S 09:03:04 30° ESE 09:08:31 10° NE daylight
31 Jan - 10:39:31 10° SW 10:45:53 79° NW 10:52:18 10° NE daylight
31 Jan - 12:24:20 10° W 12:30:04 33° NNW 12:35:44 10° NE daylight
31 Jan - 14:09:58 10° NW 14:15:08 25° N 14:20:08 10° NE daylight
31 Jan - 15:54:21 10° NW 16:00:07 36° NNE 16:05:31 10° E daylight
31 Jan - 17:37:52 10° NW 17:44:07 87° SW 17:49:47 10° SE visible
31 Jan - 19:22:05 10° WNW 19:26:32 22° WSW 19:30:43 10° SSW visible
01 Feb - 08:24:16 10° SSE 08:29:03 23° ESE 08:33:55 10° ENE daylight
01 Feb - 10:05:16 10° SW 10:11:36 85° SE 10:18:02 10° NE daylight
01 Feb - 11:49:38 10° W 11:55:33 38° NNW 12:01:25 10° NE daylight
01 Feb - 13:35:19 10° WNW 13:40:30 25° N 13:45:32 10° NE daylight
01 Feb - 15:20:00 10° NW 15:25:36 32° NNE 15:30:51 10° E daylight
01 Feb - 17:03:34 10° NW 17:09:49 75° NE 17:15:31 10° SE visible
01 Feb - 18:47:28 10° NW 18:52:34 29° WSW 18:57:18 10° S visible
